Powrót do katalogu

KUIPER-00024

AktywnyŁącznośćLEO
NORAD 63738·PAYLOAD·🇺🇸 United States

Wystrzelony Apr 28, 2025 z Cape Canaveral Space Force Station

Loading…

Następne Przeloty (najbliższe 24 godziny)

TLE

ŚwieżeSource: CelesTrak SupGP

Epoka: Sep 15, 2026, 04:04 UTC

1 63738C 25088Q   26258.16949074  .00003396  00000+0  44458-3 0  2589
2 63738  51.9034 335.2870 0000443  85.3380   8.8529 14.79919082    10

Śledź KUIPER-00024 w czasie rzeczywistym z AllMySat

Download on the App Store